User: anonymous   Login
Location: Mentone
(34.5413°N, 85.5351°W)
Time: 21:48:51
(UTC-05:00)
Language:

SL-8 R/B - Orbit

View from above orbital plane
View from above orbital plane
View from above satellite
View from above satellite

Ground track
Ground track

The orbit data is extracted from the following two-line orbital elements,

1 33066U 08031G   18168.56222706 -.00000459  00000-0 -43816-4 0  9990
2 33066  48.4445 201.2546 0008157 223.9821 300.4522 14.69602000536498
Epoch (UTC): 17 June 2018 13:29:36
Eccentricity: 0.0008157
inclination: 48.4445°
perigee height: 656 km
apogee height: 668 km
right ascension of ascending node: 201.2546°
argument of perigee: 223.9821°
revolutions per day: 14.69602000
mean anomaly at epoch: 300.4522°
orbit number at epoch: 53649

The dashed part of the orbit path shows where the satellite is in the earth's shadow,  

DLR